STARLINK-33996, 63944

Orbit data source: Space-Track

STARLINK-33996, 63944 is a payload satellite owned by SpaceX/Seattle (US) in LEO that was launched on Tue, 13 May 2025 UTC via an FALCON 9 launch vehicle from the Air Force Western Test Range (AFWTR). Payload-class satellites include a variety of spacecraft equipped with specific instruments for various scientific and technological missions. These include communications satellites like Starlink; space stations such as the ISS; scientific satellites like the Hubble; Earth observation satellites from companies like Planet Labs, Umbra, and HawkEye 360; GPS; miniature CubeSats for education and research; and military/defense satellites.

Loading next visibility...
Identifier
63944, 2025-098U
Orbit
LEO
Country
Flag of USUS
Related business
Manufacturer
SpaceX/Seattle
Mission
Operational Commercial Communications
Bus & Motor
STARLINK V2MO, Unknown motor
Mass
575 kg wet, ~530 kg dry
Launch date (UTC)
2025-05-13 (1 year ago)
Launch vehicle
FALCON 9
Launch site
Air Force Western Test Range (AFWTR)
Object type
Payload
Rocket body
Debris
Shape & HBR
Box + 2 Pan, 17.7 m
Radar Cross Section
36.964 m², Large (>1 m²)

Expand to show TLE details & history
Last TLE update: 1 day ago

TLE from 1 day ago
0 STARLINK-33996
1 63944U 25098U   26170.98600304  .00003422  00000-0  29437-3 0  9995
2 63944  70.0019  16.6043 0002978 267.7101  92.3717 14.98335391 61872
Epoch: 2026-06-19T23:39Z
TLE epoch observation values (Epoch: 2026-06-19T23:39:50.662Z)
Latitude
-0.00004°
Longitude
113.43608°
Altitude
574.55 km
Speed
7.574 km/s
True Right ascension
01h 06m 25s
True Declination
0° 00' 00"
Sunlit
Object was in daylight at epoch
Visualization orbit readout
Latitude
Unknown
Longitude
Unknown
Altitude
Unknown
Speed
Unknown
Apparent Right ascension
Unknown
Apparent Declination
Unknown
Sunlit
N/A
Visualization observer readout
Local Sidereal Time
10:20:23
Azimuth
Unknown
Elevation
Unknown
Doppler factor
Unknown
Orbital elements
Apogee altitude
572.056 km
Perigee altitude
567.918 km
Semi-major axis
6,948.124 km
Eccentricity
0.0003
Inclination
70.0019°
RAAN
16.6043°
Arg. of periapsis
267.7101°
True anomaly
92.4058°
Mean anomaly
92.3717°
Eccentric anomaly
92.38875°
Mean motion
3.7475 °/min
Orbital period
96.06 mins
BSTAR
0.00029437
Loading maneuver chart data...
Computing Atmospheric mass density...
Loading historical data...
Loading historical data...
Loading historical data...
Loading historical data...
Loading historical data...
Loading historical data...
Loading historical data...

Documentation

Showing up to 5 results
|